SL-12 R/B(2), 37140

Orbit data source: Space-Track

SL-12 R/B(2), 37140 is space debris in MEO originally from a launch on Thu, 02 Sep 2010 UTC launched from the Tyuratam Missile And Space Complex (TTMTR). Debris objects in space refer to the collection of defunct objects orbiting the Earth. Examples of debris include non-operational satellites, rocket bodies, and fragments generated from explosions, collisions, or faulty payload assembly.

Loading next visibility...
Identifier
37140, 2010-041D
Orbit
MEO
Country
Flag of CISCIS
Related business
Manufacturer
RKKE
Mission
Spacecraft
Bus & Motor
BLOK DM2, 11D58M
Mass
2,440 kg wet, 2,440 kg dry
Launch date (UTC)
2010-09-02 (15 years ago)
Launch vehicle
Unknown
Launch site
Tyuratam Missile And Space Complex (TTMTR)
Object type
Payload
Rocket body
Debris
Shape & HBR
Cyl, 3.5 m
Radar Cross Section
26.008 m², Large (>1 m²)

Expand to show TLE details & history
Last TLE update: 4 days ago

TLE from 4 days ago
0 SL-12 R/B(2)
1 37140U 10041D   25337.16155917  .00000109  00000-0  00000-0 0  9996
2 37140  63.9123 196.2229 0040495 192.9388 349.5285  2.13453963118860
Epoch: 2025-12-03T03:52Z
TLE epoch observation values (Epoch: 2025-12-03T03:52:38.712Z)
Latitude
-2.10999°
Longitude
-113.14001°
Altitude
19,001.205 km
Speed
3.971 km/s
True Right ascension
01h 09m 01s
True Declination
-2° 06' 23"
Sunlit
Object was in daylight at epoch
Visualization orbit readout
Latitude
Unknown
Longitude
Unknown
Altitude
Unknown
Speed
Unknown
Apparent Right ascension
Unknown
Apparent Declination
Unknown
Sunlit
N/A
Visualization observer readout
Local Sidereal Time
05:55:29
Azimuth
Unknown
Elevation
Unknown
Doppler factor
Unknown
Orbital elements
Apogee altitude
19,204.672 km
Perigee altitude
18,998.313 km
Semi-major axis
25,479.629 km
Eccentricity
0.00405
Inclination
63.9123°
RAAN
196.2229°
Arg. of periapsis
192.9388°
True anomaly
349.44374°
Mean anomaly
349.5285°
Eccentric anomaly
349.48616°
Mean motion
0.53365 °/min
Orbital period
674.6 mins
BSTAR
0
Loading maneuver chart data...
Computing Atmospheric mass density...
Loading historical data...
Loading historical data...
Loading historical data...
Loading historical data...
Loading historical data...
Loading historical data...
Loading historical data...

Documentation

Showing up to 5 results
|